Regional Weather Roundup
Issued by NWS Wakefield, VA

Home | Current Version | Previous Version | Graphics & Text | Print | Product List | Glossary On
Versions: 1 2 3 4 5 6 7 8 9 10 11 12 13 14 15 16 17 18 19 20 21 22 23 24 25 26 27
000
ASUS41 KAKQ 302210
RWRAKQ

REGIONAL WEATHER ROUNDUP
NATIONAL WEATHER SERVICE WAKEFIELD VA
600 PM EDT THU OCT 30 2014

Note: "fair" indicates few or no clouds below 12,000 feet with no
significant weather and/or obstructions to visibility. * = Denotes
station may not report precipitation (e.g., rain,snow,etc.),
thunder or fog.

VAZ042-051-052>054-056-302300-
NORTHERN VIRGINIA

CITY           SKY/WX    TMP DP  RH WIND       PRES   REMARKS
WASH NATIONAL  MOCLDY    58  37  45 NW9       30.04R
DULLES         MOCLDY    53  35  50 NW9       30.04R
FORT BELVOIR   CLOUDY    56  35  44 NW7       30.04R
QUANTICO       CLOUDY    57  35  43 N7        30.05R
FREDERICKSBRG* CLEAR     57  37  47 N7        30.03R
STAFFORD*      CLEAR     53  34  49 N7        30.07S
WARRENTON      CLOUDY    55  42  61 N7        30.04R
CULPEPER*      CLOUDY    55  36  47 N7        30.04S
MANASSAS*      NOT AVBL
LEESBURG*      CLOUDY    54  41  62 N3        30.05S
WINCHESTER     CLOUDY    52  32  46 NW8       30.05S
FRONT ROYAL*   CLOUDY    50  36  57 CALM      30.04S
LURAY*         CLOUDY    52  36  54 NW5       30.05S
$$

VAZ048-049-060>072-079>083-302300-
CENTRAL AND SOUTH CENTRAL VIRGINIA...AND NORTH CENTRAL NORTH CAROLINA

CITY           SKY/WX    TMP DP  RH WIND       PRES   REMARKS
RICHMOND       PTCLDY    59  37  44 N7        30.02R
CHESTERFIELD*  PTCLDY    57  34  41 N6        30.03R
PETERSBURG*    CLEAR     58  37  46 N5        30.02R
HANOVER        CLEAR     57  37  47 NW3       30.04R
TAPPAHANNOCK*  PTCLDY    58  32  37 CALM      30.02R
CHARLOTTSVILLE PTCLDY    53  34  48 N5        30.03S
ORANGE*        PTCLDY    54  36  50 NW5       30.05S
LOUISA*        PTCLDY    54  37  54 N3        30.02R
FARMVILLE*     CLOUDY    57  39  51 NE7       30.00R
CREWE*         MOCLDY    58  39  49 CALM      30.00S
FORT PICKETT*  CLEAR     57  43  59 CALM      30.01R
LUNENBURG*     CLOUDY    56  41  58 CALM      30.00R
SOUTH HILL*    CLEAR     61  46  59 CALM      30.05R
LAWRENCEVILLE* CLEAR     58  47  66 CALM      29.99S
ROANOKE RAPIDS CLEAR     55  50  82 CALM      29.99S
RALEIGH        PTCLDY    62  41  46 CALM      29.98S
$$

VAZ088>098-302300-
SOUTHEAST VIRGINIA

CITY           SKY/WX    TMP DP  RH WIND       PRES   REMARKS
NORFOLK        CLEAR     58  43  57 NE12      30.00S
VIRGINIA BEACH PTCLDY    60  43  53 N7        30.00R
NORFOLK NAVAL  PTCLDY    60  44  55 NE12      30.02R
WEST POINT*    CLEAR     59  40  49 NE3       30.03R
NEWPORT NEWS   PTCLDY    59  46  62 NE7       30.01R
LANGLEY AFB    CLEAR     56  46  67 NE7       30.01R
FORT EUSTIS    PTCLDY    59  44  58 E5        29.99R
WILLIAMSBURG*  CLEAR     61  48  63 N3        30.02R
HR EXEC AP*    CLEAR     57  45  62 NE7       30.02S
FRANKLIN*      CLEAR     59  45  58 CALM      30.00R
WAKEFIELD      CLEAR     59  45  59 NE3       30.01R
$$

VAZ020-022-025-037-045-302300-
WEST CENTRAL AND SOUTHWEST VIRGINIA

CITY           SKY/WX    TMP DP  RH WIND       PRES   REMARKS
STAUNTON*      CLEAR     50  32  50 NE7       30.06S
HOT SPRINGS VA CLEAR     44  30  59 CALM      29.99S
LYNCHBURG      CLEAR     54  39  57 CALM      30.01R
DANVILLE       CLEAR     62  38  40 N6        30.00R
SOUTH BOSTON*  NOT AVBL
MARTINSVILLE   CLEAR     58  41  52 NE3       30.02R
ROANOKE        PTCLDY    56  33  42 N9        30.03R
BLACKSBURG     CLEAR     52  37  58 CALM      30.03S
DUBLIN*        CLEAR     51  37  57 N5        30.03S
MARION*        CLEAR     53  38  56 W8        30.03S
HILLSVILLE*    CLEAR     52  35  52 N5        30.01R
RICHLANDS*     CLEAR     53  36  51 N5        30.03R
WISE*          CLEAR     52  34  50 N6        30.03S
ABINGDON*      CLEAR     56  37  47 N3        30.01S
$$

MDZ021>025-VAZ099-100-302300-
SOUTHERN MARYLAND AND THE DELMARVA PENINSULA

CITY           SKY/WX    TMP DP  RH WIND       PRES   REMARKS
PATUXENT RIVER MOCLDY    56  40  55 N6        30.01S
BAY BRIDGE APT   N/A     54  36  50 N7        30.02S
LEONARDTOWN    CLOUDY    55  41  58 CALM      30.03R
DOVER          PTCLDY    54  39  56 NW8       29.99R
GEORGETOWN     CLEAR     57  38  48 NW3       30.01R
EASTON         CLOUDY    55  41  58 N9        30.05R
CAMBRIDGE      MOCLDY    55  37  50 NW5       30.01R
SALISBURY      CLEAR     57  38  48 W5        30.00R
OCEAN CITY     CLEAR     56  39  53 NW3       30.00R
WALLOPS ISLAND CLEAR     55  41  59 NW6       30.01R
ACCOMACK*      CLEAR     55  41  58 CALM      30.01S
$$

NCZ012>017-030>032-302300-
EASTERN NORTH CAROLINA

CITY           SKY/WX    TMP DP  RH WIND       PRES   REMARKS
ELIZABETH CITY CLEAR     61  46  57 NE8       29.99R
AHOSKIE*       NOT AVBL
EDENTON*       CLOUDY    62  51  67 E5        29.98S
CURRITUCK*     CLEAR     61  47  59 N7        30.00R
KILL DEVIL HLS CLEAR     60  45  57 N6        29.97S
MANTEO         CLEAR     60  47  61 N10       29.98S
CAPE HATTERAS  CLEAR     61  49  64 N10G18    29.95S
TARBORO*       CLEAR     63  47  57 NE3       29.99S
GOLDSBORO      PTCLDY    64  52  65 N6        29.96R
WASHINGTON     CLEAR     60  48  64 NE3       29.98S
GREENVILLE     CLEAR     63  46  55 CALM      30.00R
NEW BERN       CLEAR     64  52  64 NE7       29.97S
WILMINGTON     MOCLDY    64  54  69 NE6       29.94S
$$

VAZ048-302300-
ELSEWHERE

CITY           SKY/WX    TMP DP  RH WIND       PRES   REMARKS
HARRISBURG PA  MOCLDY    52  34  50 NW5       30.02S
BALTIMORE      PTCLDY    53  36  52 NW6       30.03R
ANNAPOLIS      MOCLDY    56  40  55 NW9       30.02R
ANDREWS AFB    CLOUDY    55  38  53 N10       30.02S
WILMINGTON DE  PTCLDY    52  38  58 NW8       30.02R
PHILADELPHIA   PTCLDY    56  36  47 NW8       30.01R
WILDWOOD NJ*   CLEAR     55  39  54 NW5       30.01R
ATLANTIC CITY  PTCLDY    53  39  59 NW6       29.99R
HENDERSON NC   CLEAR     59  41  50 NE3       29.99S
GREENSBORO     CLEAR     61  36  39 NE3       29.98S
ROCKY MOUNT    CLEAR     61  46  57 NE3       29.98R
FAYETTEVILLE   CLEAR     65  45  48 NE6       29.96R
CHARLOTTE      CLEAR     62  34  35 N5        29.98S
$$

VAZ100-302300-
MARINE

STATION/POSITION TIME  TEMP    WIND        PRES    WAVE   SWELL
                       AIR SEA DIR/SP/G            HT/PER HT/PER
                 (UTC) (F)     (DEG/KT/KT) (MB)    (FT/S) (FT/S)
44066 TX TWR #4  2200   57 64  310/ 12/ 16 1014.4R   2/ 7   2/ 7
CAPE MAY NJ      2200   57 65  330/  5/ 10 1015.2R
LEWES DE         2200   58 61  350/  9/ 12 1015.5R
15NM E FENWICK I 2200   58 64              1015.4R   2/ 3
OCEAN-CITY-INLET 2200   60 63  320/  7/  9 1015.2S
WACHAPREAGUE VA  2200   57 64  290/  2/  5 1016.3R
THOMAS POINT MD  2200   56 61  330/ 12/ 13 1017.6R
GOOSES REEF MD   2200   58      30/  8/  8 1016.8R
COVE POINT MD    2200   57      10/  7/ 10 1016.2R
SOLOMONS ISLAND  2200      63                N/A
BISHOPS HEAD MD  2200   56 62  360/  4/  6 1015.7R
PINEY POINT MD   2200           40/  5/  8   N/A
POTOMAC MD       2200   58      30/  6/  8 1015.6R
CAMBRIDGE MD     2200   57 61  330/  8/ 10 1015.9R
LEWISETTA VA     2200   59 63  310/  6/  7 1016.0R
RAPPAHANNOCK LGT 2200           20/ 10/ 11 1016.6R
STINGRAY PT      2200   59      50/  8/ 10 1016.8R
YORK RVR RNG VA  2200   59      60/ 10/ 11 1015.6R
YORKTOWN VA      2200   59 64   70/  7/  8 1015.8R
JAMESTOWN VA     2200   60      40/  4/  6   N/A
DOMINION TERM VA 2200   59      30/  6/  9 1016.0R
KIPTOPEKE VA     2200      67   50/  4/  6   N/A
CHES BAY BRIDGE  2200   59 65  360/ 13/ 16 1015.4R
CHESAPEAKE LGHT  2100   60     360/ 13/ 15 1016.1R
WILLOUBY STN VA  2200   59      30/ 13/ 14 1014.6F
S CRANEY ISL VA  2200           10/ 10/ 13 1015.8R
CAPE HENRY BUOY  2200      65                N/A     3/ 5
1ST LANDING BUOY 2200   60      20/ 12/ 14 1015.7R
CAPE CHARLES BUO 2200      65                N/A     3/ 5   2/ 5
64NM E OF VA BCH 2200   62 67   10/ 12/ 16 1014.8R   3/ 5   2/ 7
DUCK PIER NC     2200   62 67   20/ 14/ 15 1014.5R
44100 DUCK FRF   2200      67                N/A     3/ 5
OREGON INLET NC  2200   62 67   20/ 11/ 16 1014.7R
HATTERAS NC      2200   64 69   10/ 17/ 19 1014.6F
DIAMOND SHLS NC  2200   67      10/ 19/ 23 1013.4R   4/ 5   2/ 8
CAPE LOOKOUT NC  2100   65      30/ 14/ 17 1013.9F
$$



USA.gov is the U.S. government's official web portal to all federal, state and local government web resources and services.